Overview Statistics Trail Chart Weather Telemetry Raw packets
 

This is the latest recevied weather packets stored in our database for station/object YO6KXQ-11. If no packets are shown the sender has not sent any weather packets the latest 10 day(s).

<< 12 13 14 15 16 17 18 >>
Time Temp. Humidity Pressure Rain* Wind** Luminosity Snow
1777480844 17.22° C 36% 1022 hPa - - - -
1777479944 17.22° C 36% 1021.8 hPa - - - -
1777479044 17.22° C 36% 1021.8 hPa - - - -
1777478144 17.22° C 36% 1021.9 hPa - - - -
1777477244 17.22° C 36% 1021.8 hPa - - - -
1777476344 17.22° C 35% 1021.7 hPa - - - -
1777475443 17.22° C 38% 1021.1 hPa - - - -
1777474543 17.22° C 37% 1021.2 hPa - - - -
1777473642 17.22° C 37% 1021.1 hPa - - - -
1777472742 17.22° C 35% 1021 hPa - - - -
1777471842 16.67° C 37% 1021.1 hPa - - - -
1777470941 17.22° C 34% 1021.2 hPa - - - -
1777470041 16.67° C 37% 1021.4 hPa - - - -
1777469141 16.67° C 37% 1021.3 hPa - - - -
1777468241 16.67° C 37% 1021.4 hPa - - - -
1777467341 16.67° C 36% 1021.5 hPa - - - -
1777466441 16.67° C 35% 1021.6 hPa - - - -
1777465541 16.67° C 35% 1021.8 hPa - - - -
1777464640 16.67° C 35% 1022 hPa - - - -
1777463748 16.11° C 36% 1022.1 hPa - - - -
1777462840 16.67° C 36% 1022.1 hPa - - - -
1777461940 16.11° C 37% 1022.2 hPa - - - -
1777461040 16.11° C 37% 1022.3 hPa - - - -
1777460140 16.11° C 37% 1022.4 hPa - - - -
1777459239 16.11° C 37% 1022.6 hPa - - - -

* Rain since midnight (hover to see other rain measurements)
** Current wind speed in m/s (hover to see current wind gust speed)